Location: Bermeries
(50.2863°N, 3.7551°E)
Time: 21:20:08
(UTC+00:00)

SL-24 R/B - Pass Details

Date: 23 May 2024
Orbit: 716 x 1115 km, 91.9° (Epoch: 14 June)

Event Time Altitude Azimuth Distance (km) Brightness Sun altitude
Exits shadow 02:28:14 - 184° (S) 2,472 6.6 -10.1°
Reaches altitude 10° 02:28:50 10° 185° (S) 2,235 6.4 -10.1°
Maximum altitude 02:33:41 66° 267° (W) 786 4.4 -9.6°
Drops below altitude 10° 02:38:30 10° 351° (N) 2,218 7.5 -9.1°
Sets 02:40:49 0° 354° (N) 3,159 8.4 -8.8°
